Wind_Speed
19 19 19 19 20 20 21 22 22 23 24 24 25 26 27 28 29 30 30 31 32 34 35 36 37 38 39 40 42 43 44 45 47 47 47 47 48 49 51 52 53 54 56
19 19 19 20 21 21 22 22 23 24 25 26 27 28 29 30 31 32 33 34 35 36 38 39 40 41 42 43 45 46 47 48 49 51 51 50 50 51 53 54 56 57 59
19 19 20 21 21 22 23 24 24 25 26 28 29 30 31 32 33 34 35 37 38 39 40 41 42 44 45 46 47 49 50 51 52 55 56 57 56 55 54 56 58 60 61
20 20 21 22 22 23 24 25 26 27 28 30 31 32 33 34 35 36 38 39 40 42 43 44 45 46 48 49 51 52 53 55 55 57 59 61 62 63 61 59 60 62 63
20 21 22 23 24 25 26 27 28 29 30 32 33 34 35 36 37 39 40 41 43 44 45 46 48 50 51 53 54 55 57 58 59 60 62 63 65 67 68 67 65 65 66
21 22 23 24 25 26 27 28 30 31 32 34 35 36 37 38 39 41 42 44 45 46 48 49 51 52 54 55 56 58 60 61 62 64 66 67 68 69 71 72 71 71 70
22 23 24 25 27 28 29 31 32 33 34 35 36 38 39 40 42 43 44 46 47 48 50 52 53 55 56 57 59 60 62 64 65 66 68 69 70 72 73 74 74 75 74
24 24 26 27 28 30 31 33 34 35 36 37 38 40 41 43 44 46 47 48 49 50 52 54 55 57 58 60 61 63 64 66 67 68 69 70 71 73 74 76 77 77 76
25 26 28 29 30 31 33 34 36 37 38 39 40 42 44 45 46 47 49 50 52 53 55 56 58 59 61 62 64 65 66 68 68 69 71 72 73 75 76 77 79 80 80
27 28 30 31 32 33 35 36 37 38 40 41 43 45 46 47 48 50 51 52 54 56 57 59 60 62 64 65 66 67 69 69 70 72 73 74 75 76 77 78 79 80 81
29 30 32 33 34 35 36 38 39 40 42 43 45 47 48 49 51 52 54 55 57 59 60 61 63 65 66 67 68 69 70 71 72 74 75 76 77 77 77 78 78 78 79
31 32 33 34 36 37 38 39 41 42 44 46 47 49 50 52 53 55 56 58 60 61 63 64 66 67 68 69 70 71 72 74 75 76 76 77 77 77 77 77 78 78 78
33 34 35 36 37 39 40 41 43 44 46 48 49 51 53 54 56 57 59 61 62 63 65 67 68 69 69 70 72 73 74 75 76 76 77 77 77 77 78 78 78 78 77
34 36 37 38 39 41 42 43 45 47 48 50 51 53 55 57 58 60 61 63 64 66 67 68 69 70 71 73 74 75 76 76 76 77 77 78 79 79 79 78 77 76 74
36 37 38 40 41 42 44 45 47 48 50 52 54 55 57 59 60 62 63 65 66 67 68 69 71 72 73 75 76 76 76 76 76 77 78 78 79 78 77 75 73 71 69
37 38 40 41 43 44 45 47 48 50 52 54 56 57 59 60 62 63 65 66 67 68 70 71 72 74 75 76 77 77 77 78 78 78 78 77 75 73 71 69 67 65 63
38 40 41 43 44 46 47 48 50 52 54 56 57 59 60 62 63 65 66 67 68 70 72 73 74 75 76 77 77 78 79 78 78 77 76 73 69 67 64 62 60 58 56
40 41 43 44 46 47 49 50 52 54 56 57 59 60 62 63 65 66 68 69 70 72 73 74 76 77 77 78 78 79 79 78 76 74 71 67 63 61 59 56 53 51 50
42 43 44 46 47 49 50 52 54 55 57 59 60 62 64 65 67 68 69 71 72 73 75 76 77 77 77 78 79 79 78 76 72 68 65 61 58 55 53 52 49 47 45
43 44 46 47 49 50 52 53 55 56 58 60 62 64 65 67 68 69 71 73 74 76 77 77 78 78 78 78 78 77 76 72 67 62 59 56 53 50 49 48 46 44 42
45 46 48 49 50 52 53 54 56 58 60 61 63 65 66 68 70 71 73 75 76 77 78 78 78 78 78 77 76 74 71 67 62 57 53 50 49 47 46 45 44 42 40
46 48 49 50 52 53 54 56 58 60 61 63 65 66 68 70 72 74 75 77 78 79 79 78 77 76 76 74 72 69 66 62 58 54 50 48 46 45 43 42 41 40 38
48 49 50 51 52 54 56 58 60 61 63 64 66 68 69 71 74 76 77 78 80 80 79 78 77 75 73 70 67 64 60 57 54 51 48 46 44 42 41 40 39 37 36
49 50 51 52 54 56 58 60 61 63 65 66 68 69 71 74 76 78 79 80 80 80 79 77 76 73 69 65 62 59 56 53 51 49 46 43 42 41 39 37 36 35 35
50 51 52 54 56 58 60 61 63 65 67 68 70 72 74 77 78 79 80 80 79 79 78 76 73 70 65 61 59 56 53 50 48 45 42 40 39 37 35 34 34 34 33
51 53 54 56 58 59 61 63 66 68 69 71 73 75 77 78 79 80 79 78 78 77 74 72 69 66 63 60 56 53 50 48 46 43 40 37 36 34 33 32 32 32 31
Wind_Direction
289 291 293 294 296 297 298 299 298 298 298 297 296 295 295 295 294 293 292 291 290 289 288 288 287 286 286 285 284 284 284 283 282 281 280 279 279 279 278 278 277 276 275
287 289 292 294 295 296 297 298 298 298 298 298 297 297 296 295 295 294 293 292 291 291 290 289 289 288 288 287 287 286 286 285 285 284 282 280 279 280 280 279 279 278 277
285 288 291 293 294 295 297 297 298 298 298 298 298 297 296 295 294 294 293 293 293 293 292 292 291 291 290 289 289 288 287 287 287 286 286 284 281 279 278 278 278 278 278
285 288 290 292 293 295 296 297 298 298 298 298 297 297 296 295 295 294 294 294 294 293 293 293 292 291 291 291 290 290 289 289 288 288 288 287 286 284 281 279 278 278 278
285 288 290 291 293 294 296 297 298 298 298 297 297 297 296 296 295 295 294 294 294 293 293 293 293 293 292 292 292 291 291 291 290 290 289 289 288 288 286 284 281 280 279
285 288 290 291 293 294 295 296 297 298 298 297 297 297 296 296 296 295 295 295 294 294 293 294 294 294 293 293 293 293 293 292 292 291 291 290 289 288 287 286 285 283 281
286 288 290 292 293 294 295 297 297 298 298 298 297 297 297 297 297 296 296 295 295 295 295 295 295 295 295 294 294 294 294 293 293 292 292 291 291 290 289 288 286 285 284
288 289 290 292 293 295 296 296 297 298 298 298 298 298 298 298 298 298 297 297 296 296 296 296 296 296 296 296 296 296 295 294 294 293 293 292 292 291 290 290 288 287 285
289 290 291 293 294 295 296 296 297 298 298 298 298 299 299 299 299 299 298 298 297 297 297 297 297 297 297 297 297 297 296 296 295 295 294 293 293 292 292 291 290 289 288
290 291 292 293 294 295 296 297 298 298 298 299 299 299 299 300 300 300 300 299 299 299 299 299 299 299 299 299 298 298 297 297 297 296 295 295 294 293 293 292 291 290 289
290 291 292 294 295 296 297 298 298 298 299 299 300 300 300 300 300 300 301 301 301 300 300 300 300 301 300 300 299 299 299 298 298 297 297 296 295 294 293 292 291 290 289
290 291 292 294 295 297 297 298 298 299 299 300 300 301 301 301 301 301 302 302 302 301 302 302 302 302 301 301 301 300 300 299 299 298 298 297 296 295 294 293 292 291 290
289 291 292 294 295 296 297 298 299 299 300 301 301 301 301 302 302 302 302 302 302 303 303 303 303 302 302 302 302 301 301 300 300 299 298 298 297 296 294 293 292 290 289
290 292 293 294 295 296 297 298 299 300 301 301 302 302 302 302 302 303 303 303 303 303 304 304 303 303 303 303 302 302 302 301 301 300 299 298 297 296 294 293 291 290 289
291 292 294 295 296 297 298 299 300 300 301 301 302 302 302 303 303 304 304 304 304 304 304 304 304 304 304 303 303 303 302 302 302 301 300 299 297 296 294 293 292 290 289
291 293 294 295 296 298 299 299 300 301 301 302 302 303 303 304 304 304 305 305 305 305 305 305 305 305 305 304 304 304 304 303 303 302 301 299 297 296 295 293 292 291 290
292 293 295 296 297 298 299 300 300 301 302 302 303 303 304 304 305 305 305 305 305 306 306 306 306 306 306 305 305 305 305 305 304 303 301 299 297 295 294 293 292 291 290
293 294 296 297 298 299 300 300 301 302 302 303 303 304 304 305 305 305 306 306 306 307 307 307 307 307 306 306 306 305 305 306 305 303 301 299 297 296 294 293 292 291 289
293 295 296 297 298 299 300 301 301 302 303 303 304 304 305 305 306 306 307 307 307 308 308 308 308 307 307 306 306 306 306 306 305 303 301 299 298 296 294 293 292 291 289
294 295 296 298 299 300 301 301 302 303 303 304 305 305 306 306 307 307 307 308 308 309 309 309 308 308 308 308 307 307 307 306 305 303 301 299 297 295 294 293 292 291 288
294 295 297 298 299 300 301 302 303 303 304 305 306 307 307 307 308 308 309 309 309 309 309 309 309 309 309 308 308 308 307 307 305 303 301 299 296 295 294 293 292 291 289
295 296 298 299 300 301 302 303 303 304 305 306 307 307 308 308 309 309 310 310 310 310 310 310 309 309 309 309 308 308 307 306 305 304 301 299 296 295 293 292 291 289 287
296 297 298 299 300 301 303 304 304 305 306 307 308 308 309 309 310 310 311 311 311 310 310 310 310 310 309 308 308 307 306 305 305 304 302 299 296 294 292 290 289 288 287
297 298 299 300 301 302 304 305 306 307 308 308 309 309 310 310 311 311 311 311 311 311 310 310 310 310 309 308 307 306 305 304 303 302 301 298 296 294 291 289 288 288 287
297 298 300 301 302 303 305 306 307 308 309 309 310 310 311 311 312 312 312 312 312 311 311 311 310 310 310 309 308 307 305 304 303 301 299 297 294 292 290 289 288 288 287
298 299 301 302 303 304 305 306 308 309 310 310 311 311 312 312 312 312 312 312 312 311 311 311 311 311 311 311 309 307 306 305 303 302 300 297 295 292 290 289 288 288 287
Height
5829 5827 5825 5824 5822 5820 5818 5816 5814 5812 5810 5808 5806 5803 5801 5798 5796 5793 5790 5788 5785 5782 5780 5777 5774 5771 5768 5765 5762 5759 5757 5754 5750 5748 5747 5745 5742 5739 5736 5733 5730 5727 5724
5824 5822 5821 5819 5817 5815 5813 5811 5809 5807 5804 5802 5799 5797 5794 5792 5789 5786 5783 5780 5777 5774 5771 5768 5765 5762 5759 5755 5752 5748 5745 5742 5738 5734 5732 5732 5732 5727 5723 5719 5716 5712 5709
5820 5818 5816 5814 5812 5810 5808 5806 5803 5801 5798 5796 5793 5790 5787 5784 5781 5778 5775 5772 5768 5765 5762 5758 5755 5751 5748 5744 5740 5736 5733 5730 5726 5720 5716 5714 5714 5713 5712 5707 5702 5698 5694
5814 5812 5810 5809 5806 5804 5802 5800 5797 5795 5792 5789 5786 5783 5780 5777 5774 5770 5767 5763 5759 5755 5752 5748 5744 5740 5736 5732 5728 5724 5720 5716 5712 5707 5702 5697 5693 5690 5691 5692 5688 5683 5678
5809 5807 5805 5803 5801 5798 5796 5793 5791 5788 5785 5782 5779 5775 5772 5769 5765 5762 5758 5754 5750 5745 5741 5737 5733 5729 5724 5720 5715 5711 5706 5701 5696 5692 5687 5682 5677 5671 5667 5667 5668 5664 5660
5803 5801 5799 5797 5795 5792 5789 5787 5784 5781 5778 5774 5771 5767 5764 5760 5756 5752 5748 5744 5740 5735 5730 5726 5721 5716 5711 5707 5701 5696 5691 5685 5680 5675 5669 5664 5659 5654 5648 5645 5643 5641 5639
5797 5795 5793 5791 5788 5785 5782 5779 5776 5773 5769 5766 5762 5758 5755 5751 5747 5742 5738 5734 5729 5724 5719 5714 5709 5703 5698 5692 5687 5681 5676 5669 5664 5658 5652 5645 5640 5633 5628 5623 5620 5617 5615
5791 5789 5786 5784 5781 5778 5775 5772 5768 5765 5761 5757 5753 5749 5745 5741 5736 5731 5727 5722 5717 5712 5707 5701 5696 5690 5684 5678 5672 5666 5659 5653 5646 5640 5633 5627 5621 5613 5607 5600 5595 5592 5591
5784 5782 5779 5776 5773 5770 5767 5763 5760 5756 5752 5748 5743 5739 5735 5730 5725 5720 5715 5710 5705 5699 5694 5688 5682 5675 5669 5662 5656 5649 5642 5635 5629 5621 5614 5608 5601 5593 5586 5578 5571 5565 5563
5777 5774 5771 5768 5765 5762 5758 5755 5751 5747 5742 5738 5734 5729 5724 5719 5714 5709 5703 5697 5692 5686 5680 5673 5667 5660 5653 5646 5638 5631 5624 5617 5610 5602 5595 5587 5579 5572 5564 5556 5549 5541 5535
5769 5766 5763 5760 5757 5753 5749 5746 5742 5737 5733 5728 5723 5718 5713 5707 5702 5696 5690 5684 5678 5672 5665 5658 5651 5644 5636 5628 5621 5613 5606 5598 5590 5582 5573 5566 5557 5549 5541 5534 5527 5519 5512
5762 5758 5755 5752 5748 5744 5740 5736 5732 5727 5722 5717 5712 5707 5701 5695 5689 5683 5677 5670 5664 5657 5649 5642 5634 5627 5619 5610 5602 5595 5587 5578 5570 5561 5552 5544 5535 5527 5519 5511 5504 5496 5489
5753 5750 5746 5743 5739 5735 5731 5726 5721 5716 5711 5706 5700 5695 5689 5683 5676 5670 5663 5656 5649 5641 5633 5625 5617 5609 5601 5592 5584 5575 5567 5558 5549 5539 5530 5522 5513 5505 5496 5488 5480 5473 5466
5744 5741 5737 5734 5730 5725 5721 5716 5711 5706 5700 5694 5688 5682 5676 5670 5663 5656 5649 5641 5633 5625 5617 5608 5600 5591 5583 5574 5565 5556 5547 5537 5528 5518 5508 5499 5489 5481 5472 5464 5457 5449 5443
5734 5731 5727 5724 5719 5715 5710 5705 5700 5694 5688 5682 5676 5670 5663 5656 5649 5641 5633 5625 5617 5608 5600 5591 5582 5573 5563 5554 5544 5535 5526 5517 5507 5497 5486 5476 5466 5457 5448 5440 5434 5427 5421
5725 5721 5717 5713 5709 5704 5699 5694 5688 5682 5676 5670 5663 5656 5649 5642 5634 5626 5618 5610 5601 5592 5583 5574 5564 5554 5544 5534 5523 5513 5504 5495 5485 5475 5464 5454 5444 5435 5426 5419 5412 5406 5400
5715 5711 5707 5702 5698 5693 5687 5682 5676 5670 5663 5657 5650 5643 5635 5628 5619 5611 5602 5594 5585 5575 5566 5556 5545 5535 5524 5513 5503 5492 5482 5473 5462 5451 5441 5432 5423 5414 5407 5400 5394 5388 5382
5704 5700 5696 5691 5686 5681 5675 5669 5663 5657 5650 5643 5636 5628 5621 5613 5604 5595 5586 5577 5567 5558 5547 5537 5526 5516 5505 5493 5482 5471 5461 5451 5440 5429 5419 5410 5403 5395 5388 5383 5378 5373 5368
5693 5689 5684 5679 5674 5668 5663 5657 5651 5644 5637 5629 5622 5614 5605 5597 5588 5579 5569 5559 5550 5540 5529 5518 5506 5495 5485 5472 5461 5449 5440 5430 5420 5410 5400 5391 5385 5378 5371 5366 5363 5359 5355
5682 5677 5672 5667 5662 5656 5650 5644 5637 5630 5623 5615 5607 5598 5589 5580 5571 5562 5552 5542 5531 5521 5510 5499 5487 5475 5464 5452 5440 5428 5418 5410 5402 5392 5383 5375 5368 5363 5357 5352 5348 5345 5341
5670 5665 5660 5655 5649 5643 5637 5630 5623 5616 5608 5600 5592 5583 5573 5564 5554 5544 5534 5523 5513 5502 5491 5480 5469 5456 5443 5431 5420 5408 5397 5389 5382 5375 5368 5361 5354 5348 5343 5338 5334 5331 5328
5658 5653 5648 5642 5636 5629 5623 5617 5609 5602 5594 5585 5577 5567 5557 5547 5536 5526 5515 5504 5492 5481 5470 5459 5449 5437 5424 5411 5400 5390 5380 5371 5364 5358 5352 5346 5340 5335 5330 5326 5322 5319 5316
5646 5640 5635 5629 5622 5615 5609 5602 5594 5586 5578 5570 5560 5550 5540 5530 5518 5507 5496 5485 5472 5460 5449 5438 5428 5419 5407 5395 5383 5373 5364 5356 5348 5343 5337 5332 5327 5322 5318 5314 5310 5307 5305
5633 5627 5621 5615 5609 5601 5594 5587 5579 5571 5562 5553 5544 5534 5523 5513 5501 5489 5477 5464 5452 5440 5429 5418 5408 5399 5389 5378 5368 5359 5350 5343 5335 5329 5324 5319 5314 5309 5306 5303 5299 5296 5294
5619 5613 5608 5601 5595 5587 5579 5571 5563 5555 5546 5537 5527 5516 5506 5494 5483 5472 5459 5445 5434 5419 5407 5397 5387 5378 5371 5362 5351 5343 5336 5329 5322 5316 5312 5307 5302 5298 5295 5292 5289 5286 5284
5605 5600 5594 5587 5580 5572 5564 5556 5547 5538 5529 5520 5510 5499 5488 5476 5464 5453 5443 5430 5415 5403 5389 5377 5367 5359 5351 5343 5336 5328 5321 5314 5308 5303 5299 5295 5291 5287 5284 5282 5279 5276 5274